Date String (YYYY-MM-DD hh:mm:ss) UTC,Instrument flags,Ambient pressure (hPa),Sample flow (lpm),Bypass flow (lpm),Sample temperature (°C),Ambient temperature (°C),ASC tube jacket temperature (°C),LED temperature (°C),Box temperature (°C),Sample RH (%),Span deviation,Mass concentration (μg/m³),Mass concentration (μg/m³),Mass concentration (μg/m³)
DateTimeUTC,F1_M11,P_M11,Q1_M11,Q2_M11,T1_M11,T2_M11,T3_M11,T4_M11,T5_M11,U1_M11,ZSPAN_M11,X0_M11,X2_M11,X1_M11
2022-03-26 09:00:00,,0825.4,5.01,0.00,27.3,26.3,00.0,36.3,29.1,13.8,0000.0,0016.89,0005.22,0003.63
2022-03-26 09:01:00,,0825.4,5.00,0.00,27.3,26.3,00.0,36.3,29.0,13.8,0000.0,0016.50,0005.17,0003.61
2022-03-26 09:02:00,,0825.4,5.00,0.00,27.3,26.3,00.0,36.3,29.0,13.8,0000.0,0015.79,0005.14,0003.61
2022-03-26 09:03:00,,0825.3,5.00,0.00,27.3,26.3,00.0,36.3,29.0,13.8,0000.0,0016.21,0005.19,0003.62
2022-03-26 09:04:00,,0825.3,5.00,0.00,27.3,26.3,00.0,36.3,29.0,13.8,0000.0,0016.22,0005.27,0003.62
2022-03-26 09:05:00,,0825.3,5.01,0.00,27.3,26.3,00.0,36.3,29.0,13.8,0000.0,0016.36,0005.22,0003.63
2022-03-26 09:06:00,,0825.3,5.00,0.00,27.3,26.2,00.0,36.3,29.0,13.8,0000.0,0016.01,0005.23,0003.62
2022-03-26 09:07:00,,0825.3,5.00,0.00,27.2,26.1,00.0,36.3,28.9,13.9,0000.0,0015.40,0005.25,0003.62
2022-03-26 09:08:00,,0825.3,5.00,0.00,27.2,26.1,00.0,36.3,28.9,14.0,0000.0,0015.44,0005.26,0003.62
2022-03-26 09:09:00,,0825.3,5.01,0.00,27.1,26.1,00.0,36.3,28.9,14.0,0000.0,0015.44,0005.30,0003.63
2022-03-26 09:10:00,,0825.3,5.00,0.00,27.2,26.1,00.0,36.2,28.9,14.0,0000.0,0015.67,0005.31,0003.62
2022-03-26 09:11:00,,0825.3,4.99,0.00,27.2,26.1,00.0,36.2,28.9,14.0,0000.0,0015.43,0005.30,0003.61
2022-03-26 09:12:00,,0825.3,5.00,0.00,27.2,26.1,00.0,36.2,28.9,13.9,0000.0,0014.44,0005.20,0003.60
2022-03-26 09:13:00,,0825.3,4.99,0.00,27.2,26.1,00.0,36.2,28.9,13.9,0000.0,0013.74,0005.17,0003.61
2022-03-26 09:14:00,,0825.3,5.00,0.00,27.2,26.1,00.0,36.2,29.0,13.9,0000.0,0013.95,0005.14,0003.61
2022-03-26 09:15:00,,0825.3,5.00,0.00,27.2,26.1,00.0,36.2,29.0,13.9,0000.0,0013.51,0005.06,0003.61
2022-03-26 09:16:00,,0825.3,5.00,0.00,27.2,26.1,00.0,36.2,28.9,13.9,0000.0,0013.77,0005.01,0003.59
2022-03-26 09:17:00,,0825.3,5.01,0.00,27.1,26.1,00.0,36.2,28.9,13.9,0000.0,0014.17,0004.98,0003.59
2022-03-26 09:18:00,,0825.3,5.00,0.00,27.1,26.1,00.0,36.2,28.9,14.0,0000.0,0014.22,0005.00,0003.59
2022-03-26 09:19:00,,0825.2,4.99,0.00,27.1,26.0,00.0,36.2,28.8,14.0,0000.0,0014.92,0005.05,0003.60
2022-03-26 09:20:00,,0825.2,4.99,0.00,27.1,26.0,00.0,36.2,28.8,14.0,0000.0,0014.32,0005.01,0003.60
2022-03-26 09:21:00,,0825.2,5.01,0.00,27.1,26.0,00.0,36.1,28.8,14.0,0000.0,0014.14,0004.98,0003.60
2022-03-26 09:22:00,,0825.2,5.00,0.00,27.1,26.0,00.0,36.1,28.8,14.0,0000.0,0013.64,0004.95,0003.62
2022-03-26 09:23:00,,0825.1,4.99,0.00,27.1,26.0,00.0,36.1,28.8,14.0,0000.0,0013.71,0004.97,0003.63
2022-03-26 09:24:00,,0825.0,5.00,0.00,27.0,26.0,00.0,36.1,28.8,14.0,0000.0,0014.26,0004.99,0003.63
2022-03-26 09:25:00,,0825.1,4.99,0.00,27.0,26.0,00.0,36.1,28.8,14.0,0000.0,0014.77,0005.04,0003.64
2022-03-26 09:26:00,,0825.1,5.01,0.00,27.0,26.0,00.0,36.1,28.8,14.0,0000.0,0015.37,0005.07,0003.65
2022-03-26 09:27:00,,0825.1,4.99,0.00,27.0,26.0,00.0,36.1,28.8,14.0,0000.0,0015.63,0005.17,0003.67
2022-03-26 09:28:00,,0824.9,5.01,0.00,27.0,25.9,00.0,36.1,28.7,14.0,0000.0,0015.58,0005.28,0003.69
2022-03-26 09:29:00,,0825.1,5.00,0.00,27.0,25.9,00.0,36.1,28.7,14.1,0000.0,0015.62,0005.34,0003.70
2022-03-26 09:30:00,,0825.1,4.99,0.00,26.9,25.9,00.0,36.0,28.7,14.1,0000.0,0015.17,0005.36,0003.72
2022-03-26 09:31:00,,0825.2,5.00,0.00,26.9,25.9,00.0,36.0,28.7,14.1,0000.0,0015.78,0005.43,0003.75
2022-03-26 09:32:00,,0825.2,4.98,0.00,26.9,25.9,00.0,36.0,28.7,14.0,0000.0,0016.14,0005.52,0003.78
2022-03-26 09:33:00,,0825.0,5.01,0.00,26.9,25.9,00.0,36.0,28.7,14.0,0000.0,0016.34,0005.55,0003.79
2022-03-26 09:34:00,,0824.9,5.00,0.00,27.0,26.0,00.0,36.0,28.7,14.0,0000.0,0016.67,0005.63,0003.82
2022-03-26 09:35:00,,0824.9,5.00,0.00,27.0,26.0,00.0,36.0,28.7,14.0,0000.0,0016.85,0005.70,0003.86
2022-03-26 09:36:00,,0824.9,4.99,0.00,27.0,26.0,00.0,36.0,28.7,14.0,0000.0,0016.81,0005.72,0003.90
2022-03-26 09:37:00,,0824.9,5.00,0.00,27.0,26.0,00.0,36.0,28.7,14.0,0000.0,0017.18,0005.80,0003.94
2022-03-26 09:38:00,,0825.1,4.99,0.00,26.9,26.0,00.0,36.0,28.7,14.0,0000.0,0016.71,0005.78,0003.96
2022-03-26 09:39:00,,0825.1,5.01,0.00,26.9,25.9,00.0,36.0,28.7,14.1,0000.0,0016.27,0005.76,0003.98
2022-03-26 09:40:00,,0825.1,4.99,0.00,26.9,25.9,00.0,36.0,28.7,14.1,0000.0,0016.51,0005.74,0004.01
2022-03-26 09:41:00,,0825.1,5.00,0.00,26.9,25.9,00.0,35.9,28.7,14.1,0000.0,0017.07,0005.75,0004.02
2022-03-26 09:42:00,,0825.0,5.00,0.00,26.9,25.9,00.0,35.9,28.7,14.1,0000.0,0017.22,0005.77,0004.02
2022-03-26 09:43:00,,0824.8,5.00,0.00,26.9,25.9,00.0,35.9,28.7,14.1,0000.0,0016.49,0005.75,0004.03
2022-03-26 09:44:00,,0824.9,5.00,0.00,26.9,25.9,00.0,35.9,28.7,14.1,0000.0,0016.33,0005.79,0004.05
2022-03-26 09:45:00,,0825.0,5.00,0.00,26.9,25.9,00.0,35.9,28.7,14.1,0000.0,0016.44,0005.81,0004.05
2022-03-26 09:46:00,,0825.1,5.00,0.00,26.9,25.9,00.0,35.9,28.6,14.1,0000.0,0016.96,0005.77,0004.03
2022-03-26 09:47:00,,0825.1,5.01,0.00,26.9,25.9,00.0,35.9,28.6,14.1,0000.0,0016.87,0005.80,0004.02
2022-03-26 09:48:00,,0825.1,5.01,0.00,26.8,25.9,00.0,35.9,28.6,14.1,0000.0,0016.76,0005.78,0004.01
2022-03-26 09:49:00,,0825.0,5.00,0.00,26.8,25.9,00.0,35.9,28.6,14.1,0000.0,0017.26,0005.77,0004.01
2022-03-26 09:50:00,,0824.9,5.00,0.00,26.8,25.9,00.0,35.9,28.6,14.1,0000.0,0017.70,0005.82,0004.00
2022-03-26 09:51:00,,0824.9,4.98,0.00,26.8,25.9,00.0,35.9,28.6,14.1,0000.0,0017.39,0005.80,0003.98
2022-03-26 09:52:00,,0825.0,5.00,0.00,26.8,25.8,00.0,35.9,28.6,14.2,0000.0,0017.13,0005.73,0003.97
2022-03-26 09:53:00,,0825.0,5.00,0.00,26.7,25.7,00.0,35.9,28.5,14.2,0000.0,0016.93,0005.69,0003.96
2022-03-26 09:54:00,,0824.9,5.02,0.00,26.7,25.7,00.0,35.8,28.5,14.3,0000.0,0017.81,0005.69,0003.95
2022-03-26 09:55:00,,0824.9,5.00,0.00,26.7,25.7,00.0,35.8,28.5,14.1,0000.0,0018.19,0005.62,0003.93
2022-03-26 09:56:00,,0824.9,5.00,0.00,26.7,25.7,00.0,35.8,28.5,14.2,0000.0,0017.71,0005.56,0003.91
2022-03-26 09:57:00,,0824.9,5.00,0.00,26.7,25.7,00.0,35.8,28.5,14.2,0000.0,0016.52,0005.53,0003.90
2022-03-26 09:58:00,,0824.9,4.99,0.00,26.7,25.7,00.0,35.8,28.5,14.2,0000.0,0016.11,0005.44,0003.89
2022-03-26 09:59:00,,0824.9,5.00,0.00,26.7,25.7,00.0,35.8,28.5,14.2,0000.0,0015.78,0005.43,0003.88
